Tracking 30743 objects as of 20-Jun-2025
HD Live streaming from Space Station
objects crossing your sky now

SL-3 R/B

Track SL-3 R/B now!
10-day predictions


NORAD ID: 13771
Int'l Code: 1983-003B
Perigee: 463.8 km
Apogee: 506.6 km
Inclination: 81.2 °
Period: 94.2 minutes
Semi major axis: 6856 km
RCS: 6.3643 m2 (large)
Launch date: January 20, 1983
Source: Commonwealth of Independent States (former USSR) (CIS)
Launch site: PLESETSK MISSILE AND SPACE COMPLEX (PKMTR)

Note: This is a ROCKET BODY
Your satellite tracking list
Your tracking list is empty




NASA's NSSDC Master Catalog

Two Line Element Set (TLE):
1 13771U 83003B   25171.53406459  .00004950  00000-0  17100-3 0  9995
2 13771  81.1597 214.5609 0031218 336.8283  23.1542 15.29247963316260
Source of the keplerian elements: AFSPC